Lid_Strength_Index
7 7 7 7 7 6 6 6 5 4 3 2 1 2 2 3 2 2 0 -1 -1 -1 -1 -1 -1 -0 -0 -0 0 -0 0 0
7 6 6 7 6 7 6 6 6 5 4 4 3 3 4 4 4 4 5 5 2 -1 -0 -0 -1 0 0 -0 0 1 1 0
7 6 7 7 7 7 7 6 6 5 5 4 4 3 3 4 5 4 5 6 5 5 3 1 -0 0 0 0 0 1 1 0
8 7 7 6 6 6 6 6 6 5 5 5 4 4 4 4 5 6 6 5 5 5 4 4 4 2 1 1 0 1 2 1
7 7 7 7 6 6 5 5 5 5 5 5 5 6 6 5 5 5 5 5 6 5 5 5 5 5 4 4 2 1 1 2
8 7 7 6 6 6 6 5 6 5 5 5 6 6 6 5 5 5 5 5 5 6 5 4 5 5 5 5 4 4 3 2
7 7 6 6 6 6 6 6 6 5 5 5 5 5 6 6 6 6 5 5 5 5 5 6 5 5 5 5 5 4 4 4
7 7 6 6 5 5 5 5 5 4 4 4 4 4 5 5 6 6 7 6 5 5 5 5 5 5 5 6 5 5 5 5
6 6 6 6 5 4 4 5 5 5 5 5 5 5 6 6 6 6 6 6 6 5 5 5 5 5 6 6 6 7 7 7
6 6 5 5 5 4 5 5 5 5 6 5 6 6 6 6 6 6 6 6 6 6 6 5 5 5 7 6 6 6 7 7
6 5 5 5 5 4 5 4 5 5 5 5 6 6 6 6 6 7 7 6 6 6 6 6 6 6 7 7 7 7 7 7
6 5 5 5 5 5 5 5 6 6 6 6 6 6 5 5 5 5 6 6 7 7 6 6 6 6 7 8 8 8 8 7
6 5 5 5 6 6 6 6 6 6 6 6 6 6 6 6 6 6 6 6 6 6 7 7 7 7 7 8 8 8 8 8
6 6 7 6 6 6 6 6 6 6 6 6 6 6 6 6 6 6 7 7 7 7 7 7 7 7 7 8 8 8 8 8
7 7 7 7 7 7 6 7 6 6 6 7 7 7 7 7 7 7 7 7 8 8 7 8 8 8 8 9 9 9 8 8
8 8 7 7 7 7 7 7 7 7 7 7 7 7 7 7 8 8 8 8 8 8 8 8 8 8 9 10 10 9 9 9
8 8 7 7 7 7 7 7 7 7 7 7 7 7 7 8 8 9 9 9 9 9 9 9 9 9 10 10 10 10 9 9
8 8 7 7 7 7 7 7 7 7 8 8 8 8 8 8 9 9 9 9 9 9 9 9 9 9 10 10 10 9 9 9
8 7 7 7 7 7 7 7 7 8 8 8 8 8 9 9 9 9 9 9 9 9 9 10 10 10 10 10 10 9 9 9